DECAYED

CZ-6A DEB, 61400 (Decayed)

Orbit data source: Space-Track

CZ-6A DEB, 61400 was space debris in LEO originally from a launch on Tue, 06 Aug 2024 UTC launched from the Taiyaun Space Center, China (TSC). Debris objects in space refer to the collection of defunct objects orbiting the Earth. Examples of debris include non-operational satellites, rocket bodies, and fragments generated from explosions, collisions, or faulty payload assembly.

Loading next visibility...
Identifier
61400, 2024-140XR
Orbit
Decayed
Country
Flag of CNCN / PRC
Related business
Manufacturer
SAST
Mission
Decayed spacecraft
Bus & Motor
Unknown
Mass
Unknown
Launch date (UTC)
2024-08-06 (2 years ago)
Launch vehicle
Unknown
Launch site
Taiyaun Space Center, China (TSC)
Object type
Payload
Rocket body
Debris
Shape & HBR
Unknown shape, 0.1 m
Radar Cross Section
Medium (>0.1 m² and <1 m²)

Expand to show TLE details & history
Last TLE update: 1 year ago

TLE from 1 year ago
0 CZ-6A DEB
1 61400U 24140XR  25123.59421219  .07659988  10989+0  23132-1 0  9998
2 61400  89.2792 328.9616 0007604 128.5127 231.6844 15.97726649 35314
Epoch: 2025-05-03T14:15Z
TLE epoch observation values (Epoch: 2025-05-03T14:15:39.933Z)
Latitude
0.00004°
Longitude
-106.68902°
Altitude
287.174 km
Speed
7.733 km/s
True Right ascension
21h 55m 50s
True Declination
0° 00' 00"
Sunlit
Object was in daylight at epoch
Visualization orbit readout
Latitude
Unknown
Longitude
Unknown
Altitude
Unknown
Speed
Unknown
Apparent Right ascension
Unknown
Apparent Declination
Unknown
Sunlit
N/A
Visualization observer readout
Local Sidereal Time
10:19:33
Azimuth
Unknown
Elevation
Unknown
Doppler factor
Unknown
Orbital elements
Apogee altitude
282.488 km
Perigee altitude
272.367 km
Semi-major axis
6,655.565 km
Eccentricity
0.00076
Inclination
89.2792°
RAAN
328.9616°
Arg. of periapsis
128.5127°
True anomaly
231.61607°
Mean anomaly
231.6844°
Eccentric anomaly
231.65023°
Mean motion
3.99729 °/min
Orbital period
90.06 mins
BSTAR
0.023132
Loading maneuver chart data...
Computing Atmospheric mass density...
Loading historical data...
Loading historical data...
Loading historical data...
Loading historical data...
Loading historical data...
Loading historical data...
Loading historical data...

Documentation

Showing up to 5 results
|